| time (UTC) | temp F | wind direction | speed knots | gust knots | rain 1hr in | rain 24hr in | rain mn in | humidity % | barometer mb |
| 20260507033440 | 48 | 288 | 0.0 | 0.0 | 0.00 | 0.00 | 0.00 | 64 | 1008.6 |
| 20260507031940 | 48 | 288 | 0.0 | 0.0 | 0.00 | 0.00 | 0.00 | 64 | 1008.5 |
| 20260507025940 | 49 | 288 | 0.0 | 0.0 | 0.00 | 0.00 | 0.00 | 64 | 1008.2 |
| 20260507025440 | 50 | 288 | 0.9 | 1.7 | 0.00 | 0.00 | 0.00 | 64 | 1008.1 |
| 20260507024940 | 50 | 288 | 0.9 | 1.7 | 0.00 | 0.00 | 0.00 | 63 | 1008.0 |
| 20260507024440 | 51 | 288 | 1.7 | 1.7 | 0.00 | 0.00 | 0.00 | 64 | 1008.0 |
| 20260507021942 | 51 | 288 | 1.7 | 3.5 | 0.00 | 0.00 | 0.00 | 65 | 1008.1 |
| 20260507020440 | 51 | 278 | 2.6 | 3.5 | 0.00 | 0.00 | 0.00 | 65 | 1007.9 |
| 20260507015940 | 51 | 278 | 4.3 | 5.2 | 0.00 | 0.00 | 0.00 | 65 | 1007.8 |
| 20260507015440 | 51 | 278 | 2.6 | 7.0 | 0.00 | 0.00 | 0.00 | 65 | 1007.6 |
| 20260507013940 | 51 | 286 | 3.5 | 5.2 | 0.00 | 0.00 | 0.00 | 64 | 1007.4 |
| 20260507013440 | 51 | 290 | 4.3 | 5.2 | 0.00 | 0.00 | 0.00 | 64 | 1007.5 |
| 20260507012440 | 52 | 290 | 3.5 | 5.2 | 0.00 | 0.00 | 0.00 | 64 | 1007.4 |
| 20260507011940 | 52 | 290 | 3.5 | 5.2 | 0.00 | 0.00 | 0.00 | 64 | 1007.4 |
| 20260507011440 | 52 | 291 | 4.3 | 5.2 | 0.00 | 0.00 | 0.00 | 64 | 1007.4 |
| 20260507010940 | 52 | 292 | 5.2 | 6.1 | 0.00 | 0.00 | 0.00 | 64 | 1007.3 |
| 20260507010440 | 52 | 288 | 5.2 | 7.0 | 0.00 | 0.00 | 0.00 | 65 | 1007.2 |
| 20260507005940 | 52 | 289 | 4.3 | 7.0 | 0.00 | 0.00 | 0.00 | 65 | 1007.1 |
| 20260507005440 | 52 | 284 | 5.2 | 7.8 | 0.00 | 0.00 | 0.00 | 65 | 1007.1 |
| 20260507004440 | 52 | 296 | 4.3 | 6.1 | 0.00 | 0.00 | 0.00 | 65 | 1006.9 |
| 20260507003440 | 52 | 304 | 6.1 | 8.7 | 0.00 | 0.00 | 0.00 | 66 | 1006.5 |
| 20260507001940 | 52 | 296 | 5.2 | 8.7 | 0.00 | 0.00 | 0.00 | 64 | 1006.7 |
| 20260507001440 | 52 | 293 | 5.2 | 6.1 | 0.00 | 0.00 | 0.00 | 63 | 1006.8 |
| 20260507000940 | 52 | 288 | 5.2 | 7.0 | 0.00 | 0.00 | 0.00 | 64 | 1006.8 |
| 20260507000442 | 52 | 288 | 5.2 | 7.0 | 0.00 | 0.00 | 0.00 | 64 | 1006.8 |
| 20260506234445 | 52 | 298 | 4.3 | 5.2 | 0.00 | 0.00 | 0.00 | 64 | 1006.6 |
| 20260506230940 | 53 | 330 | 5.2 | 6.1 | 0.00 | 0.00 | 0.00 | 63 | 1005.8 |
| 20260506224440 | 55 | 318 | 5.2 | 7.8 | 0.00 | 0.00 | 0.00 | 63 | 1005.3 |
| 20260506223940 | 55 | 312 | 7.8 | 9.6 | 0.00 | 0.00 | 0.00 | 63 | 1005.3 |
| 20260506223440 | 56 | 300 | 7.8 | 11.3 | 0.00 | 0.00 | 0.00 | 63 | 1005.4 |
| 20260506222940 | 56 | 309 | 11.3 | 13.0 | 0.00 | 0.00 | 0.00 | 62 | 1005.2 |
| 20260506222440 | 57 | 317 | 7.8 | 9.6 | 0.00 | 0.00 | 0.00 | 60 | 1005.0 |
| 20260506220940 | 57 | 257 | 1.7 | 2.6 | 0.00 | 0.00 | 0.00 | 55 | 1004.8 |
| 20260506220440 | 57 | 257 | 3.5 | 7.8 | 0.00 | 0.00 | 0.00 | 57 | 1004.8 |
| 20260506215940 | 57 | 164 | 5.2 | 6.1 | 0.00 | 0.00 | 0.00 | 57 | 1004.8 |
| 20260506215440 | 57 | 163 | 3.5 | 5.2 | 0.00 | 0.00 | 0.00 | 56 | 1004.8 |
| 20260506214940 | 57 | 164 | 6.1 | 8.7 | 0.00 | 0.00 | 0.00 | 57 | 1004.7 |
| 20260506214440 | 57 | 164 | 8.7 | 9.6 | 0.00 | 0.00 | 0.00 | 57 | 1004.7 |
| 20260506212440 | 58 | 136 | 7.0 | 10.4 | 0.00 | 0.00 | 0.00 | 57 | 1004.4 |
| 20260506211940 | 58 | 147 | 7.0 | 7.8 | 0.00 | 0.00 | 0.00 | 56 | 1004.4 |
| 20260506211440 | 58 | 149 | 6.1 | 7.0 | 0.00 | 0.00 | 0.00 | 55 | 1004.3 |
| 20260506210941 | 58 | 133 | 6.1 | 9.6 | 0.00 | 0.00 | 0.00 | 55 | 1004.1 |
| 20260506205940 | 58 | 128 | 8.7 | 9.6 | 0.00 | 0.00 | 0.00 | 56 | 1004.0 |
| 20260506205440 | 59 | 123 | 7.8 | 9.6 | 0.00 | 0.00 | 0.00 | 56 | 1003.9 |
| 20260506204940 | 59 | 126 | 7.8 | 10.4 | 0.00 | 0.00 | 0.00 | 56 | 1003.9 |
| 20260506203940 | 59 | 122 | 8.7 | 11.3 | 0.00 | 0.00 | 0.00 | 55 | 1003.9 |
| 20260506203440 | 59 | 120 | 9.6 | 10.4 | 0.00 | 0.00 | 0.00 | 54 | 1003.9 |
| 20260506202940 | 59 | 121 | 9.6 | 11.3 | 0.00 | 0.00 | 0.00 | 54 | 1003.9 |
| 20260506202440 | 60 | 129 | 9.6 | 11.3 | 0.00 | 0.00 | 0.00 | 54 | 1003.9 |
| 20260506200940 | 60 | 133 | 9.6 | 11.3 | 0.00 | 0.00 | 0.00 | 53 | 1004.0 |
| 20260506200440 | 60 | 129 | 9.6 | 11.3 | 0.00 | 0.00 | 0.00 | 53 | 1004.0 |
| 20260506195440 | 60 | 137 | 9.6 | 11.3 | 0.00 | 0.00 | 0.00 | 52 | 1003.9 |
| 20260506194940 | 60 | 132 | 7.8 | 9.6 | 0.00 | 0.00 | 0.00 | 52 | 1004.0 |
| 20260506193940 | 61 | 127 | 8.7 | 10.4 | 0.00 | 0.00 | 0.00 | 50 | 1003.8 |
| 20260506192440 | 61 | 125 | 8.7 | 9.6 | 0.00 | 0.00 | 0.00 | 49 | 1003.6 |
| 20260506191940 | 61 | 121 | 7.8 | 12.2 | 0.00 | 0.00 | 0.00 | 48 | 1003.5 |
| 20260506190940 | 61 | 126 | 9.6 | 11.3 | 0.00 | 0.00 | 0.00 | 48 | 1003.6 |
| 20260506190440 | 62 | 142 | 8.7 | 9.6 | 0.00 | 0.00 | 0.00 | 48 | 1003.6 |
| 20260506185940 | 62 | 129 | 9.6 | 10.4 | 0.00 | 0.00 | 0.00 | 48 | 1003.5 |
| 20260506184940 | 62 | 130 | 9.6 | 12.2 | 0.00 | 0.00 | 0.00 | 48 | 1003.3 |
| 20260506183940 | 62 | 136 | 8.7 | 14.8 | 0.00 | 0.00 | 0.00 | 48 | 1003.3 |
| 20260506183440 | 62 | 131 | 12.2 | 13.0 | 0.00 | 0.00 | 0.00 | 47 | 1003.3 |
| 20260506182940 | 62 | 127 | 8.7 | 11.3 | 0.00 | 0.00 | 0.00 | 47 | 1003.4 |
| 20260506182440 | 63 | 124 | 7.0 | 10.4 | 0.00 | 0.00 | 0.00 | 46 | 1003.5 |
| 20260506181940 | 63 | 125 | 7.8 | 8.7 | 0.00 | 0.00 | 0.00 | 46 | 1003.4 |
| 20260506181440 | 63 | 123 | 8.7 | 9.6 | 0.00 | 0.00 | 0.00 | 45 | 1003.4 |
| 20260506180940 | 63 | 126 | 9.6 | 12.2 | 0.00 | 0.00 | 0.00 | 45 | 1003.3 |
| 20260506180440 | 63 | 126 | 9.6 | 11.3 | 0.00 | 0.00 | 0.00 | 45 | 1003.3 |
| 20260506175440 | 63 | 132 | 11.3 | 13.0 | 0.00 | 0.00 | 0.00 | 45 | 1003.1 |
| 20260506173440 | 64 | 130 | 13.0 | 15.6 | 0.00 | 0.00 | 0.00 | 44 | 1003.2 |
| 20260506172940 | 64 | 135 | 13.0 | 13.9 | 0.00 | 0.00 | 0.00 | 44 | 1003.2 |
| 20260506172440 | 64 | 131 | 13.9 | 14.8 | 0.00 | 0.00 | 0.00 | 43 | 1003.2 |
| 20260506171940 | 64 | 139 | 13.9 | 14.8 | 0.00 | 0.00 | 0.00 | 43 | 1003.2 |
| 20260506171440 | 65 | 136 | 13.0 | 14.8 | 0.00 | 0.00 | 0.00 | 43 | 1003.2 |
| 20260506170440 | 66 | 129 | 13.0 | 13.9 | 0.00 | 0.00 | 0.00 | 42 | 1003.2 |
| 20260506164940 | 66 | 137 | 14.8 | 21.7 | 0.00 | 0.00 | 0.00 | 40 | 1003.4 |
| 20260506164440 | 67 | 138 | 13.0 | 14.8 | 0.00 | 0.00 | 0.00 | 40 | 1003.4 |
| 20260506163440 | 67 | 149 | 11.3 | 13.0 | 0.00 | 0.00 | 0.00 | 39 | 1003.4 |
| 20260506162940 | 67 | 140 | 12.2 | 16.5 | 0.00 | 0.00 | 0.00 | 38 | 1003.4 |
| 20260506161940 | 68 | 151 | 10.4 | 13.0 | 0.00 | 0.00 | 0.00 | 39 | 1003.5 |
| 20260506161440 | 68 | 128 | 15.6 | 18.2 | 0.00 | 0.00 | 0.00 | 38 | 1003.6 |
| 20260506160940 | 68 | 129 | 13.0 | 14.8 | 0.00 | 0.00 | 0.00 | 39 | 1003.6 |
| 20260506160440 | 67 | 141 | 11.3 | 13.0 | 0.00 | 0.00 | 0.00 | 39 | 1003.6 |
| 20260506154940 | 67 | 130 | 13.9 | 16.5 | 0.00 | 0.00 | 0.00 | 39 | 1003.9 |
| 20260506154440 | 67 | 126 | 16.5 | 18.2 | 0.00 | 0.00 | 0.00 | 39 | 1004.0 |
| 20260506153940 | 67 | 140 | 14.8 | 15.6 | 0.00 | 0.00 | 0.00 | 40 | 1004.1 |
| 20260506152940 | 66 | 130 | 12.2 | 16.5 | 0.00 | 0.00 | 0.00 | 41 | 1004.4 |
| 20260506150940 | 68 | 147 | 10.4 | 13.9 | 0.00 | 0.00 | 0.00 | 39 | 1004.4 |
| 20260506150440 | 67 | 166 | 14.8 | 16.5 | 0.00 | 0.00 | 0.00 | 38 | 1004.4 |
| 20260506144944 | 69 | 143 | 12.2 | 15.6 | 0.00 | 0.00 | 0.00 | 39 | 1004.7 |
| 20260506142940 | 70 | 154 | 10.4 | 15.6 | 0.00 | 0.00 | 0.00 | 37 | 1004.8 |
| 20260506142440 | 69 | 144 | 10.4 | 14.8 | 0.00 | 0.00 | 0.00 | 39 | 1004.9 |
| 20260506141941 | 69 | 155 | 13.9 | 14.8 | 0.00 | 0.00 | 0.00 | 37 | 1004.9 |
| 20260506141440 | 69 | 158 | 11.3 | 16.5 | 0.00 | 0.00 | 0.00 | 39 | 1004.9 |
| 20260506140940 | 69 | 160 | 13.0 | 13.9 | 0.00 | 0.00 | 0.00 | 39 | 1005.0 |
| 20260506140440 | 67 | 150 | 10.4 | 14.8 | 0.00 | 0.00 | 0.00 | 41 | 1005.1 |
| 20260506133940 | 66 | 142 | 11.3 | 13.0 | 0.00 | 0.00 | 0.00 | 41 | 1005.5 |
| 20260506131940 | 68 | 146 | 9.6 | 10.4 | 0.00 | 0.00 | 0.00 | 40 | 1005.7 |
| 20260506131440 | 68 | 143 | 7.8 | 10.4 | 0.00 | 0.00 | 0.00 | 40 | 1005.8 |
| 20260506130940 | 68 | 147 | 7.0 | 10.4 | 0.00 | 0.00 | 0.00 | 40 | 1005.8 |
| 20260506125940 | 67 | 156 | 7.8 | 11.3 | 0.00 | 0.00 | 0.00 | 40 | 1006.0 |
| 20260506123940 | 69 | 157 | 9.6 | 11.3 | 0.00 | 0.00 | 0.00 | 37 | 1006.2 |
| 20260506123440 | 70 | 132 | 12.2 | 14.8 | 0.00 | 0.00 | 0.00 | 37 | 1006.2 |
| 20260506122940 | 70 | 173 | 9.6 | 11.3 | 0.00 | 0.00 | 0.00 | 37 | 1006.2 |
| 20260506122440 | 70 | 161 | 11.3 | 15.6 | 0.00 | 0.00 | 0.00 | 37 | 1006.2 |
| 20260506120940 | 70 | 176 | 9.6 | 15.6 | 0.00 | 0.00 | 0.00 | 36 | 1006.3 |
| 20260506120440 | 70 | 155 | 11.3 | 12.2 | 0.00 | 0.00 | 0.00 | 35 | 1006.3 |
| 20260506114940 | 68 | 170 | 7.8 | 11.3 | 0.00 | 0.00 | 0.00 | 38 | 1006.5 |
| 20260506114440 | 68 | 148 | 7.8 | 9.6 | 0.00 | 0.00 | 0.00 | 39 | 1006.5 |
| 20260506113440 | 68 | 159 | 6.1 | 8.7 | 0.00 | 0.00 | 0.00 | 38 | 1006.5 |
| 20260506112940 | 68 | 130 | 7.0 | 9.6 | 0.00 | 0.00 | 0.00 | 38 | 1006.5 |
| 20260506112440 | 68 | 136 | 7.8 | 10.4 | 0.00 | 0.00 | 0.00 | 39 | 1006.5 |
| 20260506110940 | 69 | 140 | 7.8 | 9.6 | 0.00 | 0.00 | 0.00 | 40 | 1006.7 |
| 20260506110440 | 69 | 163 | 7.0 | 8.7 | 0.00 | 0.00 | 0.00 | 38 | 1006.8 |
| 20260506105940 | 69 | 161 | 9.6 | 12.2 | 0.00 | 0.00 | 0.00 | 38 | 1006.7 |
| 20260506104440 | 70 | 151 | 8.7 | 11.3 | 0.00 | 0.00 | 0.00 | 36 | 1006.8 |
| 20260506103943 | 70 | 136 | 3.5 | 4.3 | 0.00 | 0.00 | 0.00 | 37 | 1006.9 |
| 20260506103440 | 71 | 181 | 8.7 | 11.3 | 0.00 | 0.00 | 0.00 | 39 | 1006.9 |
| 20260506102940 | 71 | 157 | 7.8 | 9.6 | 0.00 | 0.00 | 0.00 | 39 | 1007.0 |
| 20260506102440 | 71 | 165 | 7.8 | 9.6 | 0.00 | 0.00 | 0.00 | 37 | 1007.1 |
| 20260506101940 | 71 | 158 | 6.1 | 8.7 | 0.00 | 0.00 | 0.00 | 38 | 1007.1 |
| 20260506100440 | 72 | 181 | 7.0 | 12.2 | 0.00 | 0.00 | 0.00 | 38 | 1007.2 |
| 20260506095940 | 72 | 151 | 7.8 | 9.6 | 0.00 | 0.00 | 0.00 | 38 | 1007.3 |
| 20260506095440 | 70 | 179 | 6.1 | 8.7 | 0.00 | 0.00 | 0.00 | 37 | 1007.3 |
| 20260506094940 | 70 | 198 | 6.1 | 7.8 | 0.00 | 0.00 | 0.00 | 39 | 1007.3 |
| 20260506093440 | 69 | 174 | 6.1 | 9.6 | 0.00 | 0.00 | 0.00 | 38 | 1007.3 |
| 20260506091940 | 70 | 191 | 5.2 | 6.1 | 0.00 | 0.00 | 0.00 | 38 | 1007.3 |
| 20260506090941 | 70 | 161 | 7.8 | 9.6 | 0.00 | 0.00 | 0.00 | 40 | 1007.3 |
| 20260506090440 | 70 | 224 | 5.2 | 7.0 | 0.00 | 0.00 | 0.00 | 38 | 1007.3 |
| 20260506085940 | 70 | 251 | 6.1 | 7.8 | 0.00 | 0.00 | 0.00 | 39 | 1007.3 |
| 20260506084440 | 68 | 167 | 9.6 | 11.3 | 0.00 | 0.00 | 0.00 | 38 | 1007.3 |
| 20260506083940 | 68 | 146 | 3.5 | 4.3 | 0.00 | 0.00 | 0.00 | 40 | 1007.3 |
| 20260506083440 | 70 | 147 | 7.8 | 7.8 | 0.00 | 0.00 | 0.00 | 41 | 1007.4 |
| 20260506082940 | 70 | 164 | 7.0 | 9.6 | 0.00 | 0.00 | 0.00 | 41 | 1007.4 |
| 20260506082440 | 70 | 175 | 4.3 | 7.8 | 0.00 | 0.00 | 0.00 | 38 | 1007.5 |
| 20260506081940 | 70 | 197 | 6.1 | 7.8 | 0.00 | 0.00 | 0.00 | 38 | 1007.5 |
| 20260506081440 | 70 | 225 | 6.1 | 8.7 | 0.00 | 0.00 | 0.00 | 39 | 1007.5 |
| 20260506080940 | 70 | 176 | 3.5 | 6.1 | 0.00 | 0.00 | 0.00 | 40 | 1007.5 |
| 20260506080440 | 72 | 175 | 7.8 | 8.7 | 0.00 | 0.00 | 0.00 | 39 | 1007.5 |
| 20260506073440 | 71 | 252 | 2.6 | 6.1 | 0.00 | 0.00 | 0.00 | 40 | 1007.4 |
| 20260506072940 | 71 | 256 | 3.5 | 4.3 | 0.00 | 0.00 | 0.00 | 41 | 1007.5 |
| 20260506071940 | 70 | 288 | 4.3 | 5.2 | 0.00 | 0.00 | 0.00 | 42 | 1007.6 |
| 20260506071440 | 68 | 288 | 6.1 | 7.8 | 0.00 | 0.00 | 0.00 | 42 | 1007.6 |
| 20260506070940 | 68 | 276 | 4.3 | 5.2 | 0.00 | 0.00 | 0.00 | 42 | 1007.5 |
| 20260506070440 | 69 | 282 | 5.2 | 7.8 | 0.00 | 0.00 | 0.00 | 42 | 1007.5 |
| 20260506062445 | 67 | 255 | 3.5 | 4.3 | 0.00 | 0.00 | 0.00 | 46 | 1007.4 |
| 20260506061940 | 67 | 277 | 2.6 | 4.3 | 0.00 | 0.00 | 0.00 | 48 | 1007.5 |
| 20260506061440 | 65 | 256 | 4.3 | 6.1 | 0.00 | 0.00 | 0.00 | 47 | 1007.5 |
| 20260506060940 | 65 | 254 | 3.5 | 4.3 | 0.00 | 0.00 | 0.00 | 48 | 1007.4 |
| 20260506050940 | 59 | 210 | 3.5 | 5.2 | 0.00 | 0.00 | 0.00 | 61 | 1007.2 |
| 20260506050440 | 58 | 210 | 4.3 | 5.2 | 0.00 | 0.00 | 0.00 | 62 | 1007.2 |
| 20260506044940 | 59 | 240 | 3.5 | 4.3 | 0.00 | 0.00 | 0.00 | 61 | 1006.9 |
| 20260506044440 | 58 | 241 | 3.5 | 4.3 | 0.00 | 0.00 | 0.00 | 62 | 1006.8 |
| 20260506043940 | 58 | 241 | 5.2 | 6.1 | 0.00 | 0.00 | 0.00 | 62 | 1006.8 |
| 20260506043440 | 56 | 273 | 3.5 | 5.2 | 0.00 | 0.00 | 0.00 | 65 | 1006.8 |
| 20260506042940 | 56 | 278 | 4.3 | 5.2 | 0.00 | 0.00 | 0.00 | 67 | 1006.8 |
| 20260506042440 | 53 | 290 | 4.3 | 5.2 | 0.00 | 0.00 | 0.00 | 69 | 1006.7 |
| 20260506041440 | 51 | 298 | 1.7 | 3.5 | 0.00 | 0.00 | 0.00 | 69 | 1006.7 |
| 20260506040440 | 51 | 298 | 1.7 | 2.6 | 0.00 | 0.00 | 0.00 | 71 | 1006.6 |
| 20260506035940 | 51 | 298 | 2.6 | 2.6 | 0.00 | 0.00 | 0.00 | 71 | 1006.5 |